Location: *
(37.5724°S, 58.0067°E)
Time: 01:02:33
(UTC+00:00)

Cosmos 1980 - Pass Details

Date: 25 January 2021
Orbit: 840 x 846 km, 71.0° (Epoch: 06 March)

Event Time Altitude Azimuth Distance (km) Brightness Sun altitude
Rises 21:08:45 0° 189° (S) 3,441 7.8 -32.6°
Reaches altitude 10° 21:11:52 10° 173° (S) 2,498 7.0 -32.4°
Maximum altitude 21:16:07 21° 125° (SE) 1,842 5.9 -32.2°
Enters shadow 21:19:55 11° 80° (E) 2,376 6.1 -32.0°
